Vertical_Velocity
-2 -3 -0 1 -1 -2 -1 -1 0 -1 -1 1 -1 -1 -2 -2 -1 -2 -3 1 -0 2 -2 4 -2 -5 2 -1 -1 -1 -3 -3 -0 1 1 -4 -8 -3 -2 -3 -11 -10 3 1 2 1 1
-2 -2 -3 -0 -1 -1 -3 -1 -3 -1 -1 2 0 -1 -1 -1 -2 -1 -0 -2 0 1 1 -2 -4 2 3 -0 -0 2 -0 -0 -4 4 -1 2 -3 -1 -11 0 -5 -2 -2 3 6 3 -1
1 -1 -3 -4 -5 -2 -1 -3 -3 -0 -0 -0 -4 -1 -2 -3 0 -3 -1 0 -4 -1 -3 1 -4 -1 2 -1 -2 4 3 -2 -1 0 -18 3 -0 -0 -3 -2 10 -0 -9 2 5 1 -0
-2 -1 -1 -0 0 -1 -2 -2 -1 -1 -1 -0 -1 0 0 -2 -1 0 -1 -1 -1 -2 -0 -1 2 -8 -1 -1 -0 4 4 1 3 -0 -5 5 6 -23 -7 4 4 -8 -5 -1 1 1 1
-0 0 0 -1 1 -1 -1 -1 -2 -2 -1 -2 -0 -1 -1 -3 -2 0 -1 -2 1 -4 -0 0 -1 -3 -3 1 -0 1 2 -2 5 2 -2 0 -13 -7 7 -7 2 1 -0 0 7 -1 0
-0 -2 -1 -3 -3 -4 -4 -2 0 -1 -3 -2 -3 -6 0 -3 -1 -2 -2 -2 2 -2 -3 3 -1 1 4 0 2 4 7 4 -7 3 -0 -5 -7 -3 3 0 -2 -1 0 2 -2 -1 3
-1 -0 -1 -1 -0 -2 -0 -2 -4 -1 -2 -3 -3 0 -1 8 -6 3 -2 -1 -2 -1 -0 -2 -2 2 1 0 -5 5 6 4 -0 0 -2 -1 -3 -5 -7 -0 -1 -3 -2 -2 1 1 -1
-3 -2 -2 -1 2 0 -1 -2 0 -1 -1 -2 -2 -5 -0 -4 -6 14 8 -3 2 1 -4 -2 2 -5 0 6 -4 -0 4 4 -1 -1 1 -4 -1 -2 -1 -0 -3 -0 -2 2 3 0 1
-3 -2 -1 -1 -3 -3 -1 -1 -1 -1 -2 1 -3 -8 -5 -12 11 5 6 -2 1 2 2 -0 -3 -3 -1 3 -0 -1 4 1 -3 -1 -0 -3 2 0 -1 1 -2 1 -3 0 -5 1 1
0 -1 -2 -2 -2 -2 -1 -2 -2 -1 -2 0 -2 -2 -3 0 -4 -2 -8 10 4 4 -3 -7 0 -5 -1 1 -1 -1 2 -0 -1 -4 -1 -0 1 -1 0 -0 -3 -0 -1 -1 -0 -1 1
-0 -1 -0 0 -1 -2 -1 -2 -2 -1 -3 1 -4 -3 5 5 -2 -2 5 20 16 3 -1 -13 4 2 5 1 -1 1 -0 0 -1 1 -1 3 0 1 -1 -1 -1 1 -3 -2 -1 -1 -0
0 -0 0 0 -0 -2 -3 -1 1 -0 -1 -1 -3 -2 -9 -2 -2 -3 -1 2 17 -7 -15 0 1 1 -0 2 2 1 1 -4 0 -4 -2 1 1 -1 1 1 -1 -1 -3 -2 -1 -0 0
2 -1 -0 -2 -1 -2 -2 2 1 4 1 -1 -3 2 -4 6 -0 3 -5 36 0 -3 -7 -0 -2 0 -2 1 3 -0 0 1 -3 -5 -1 -1 -1 -0 -1 -5 2 -1 -1 -1 -1 0 -2
-1 -1 -2 -1 -2 1 -2 1 7 -2 1 -2 -2 -2 5 -7 4 1 10 2 0 -9 -3 1 -1 3 -3 -3 1 1 1 0 0 -3 -1 -3 4 1 -0 -2 -8 -1 -3 -5 -2 -0 1
3 1 -0 2 -2 1 3 3 1 2 0 -0 -2 1 -8 -6 4 16 11 5 -14 -3 -6 -3 2 -0 2 1 -7 -2 -0 -2 -1 -2 -8 -3 1 -1 -1 0 -2 2 2 1 -3 1 1
1 1 -2 1 2 -2 2 4 4 -0 1 4 0 -2 -17 11 8 7 7 -3 -0 -1 -1 1 -4 -5 -1 1 -3 -2 -0 -3 1 -0 -0 -2 -3 -0 -0 1 1 -0 -0 2 -0 -0 -0
-1 -5 -1 1 4 2 1 -2 1 1 6 2 -1 -2 -2 2 17 -1 1 -4 -1 -0 -1 -4 -1 -1 -2 -3 -3 -0 -4 2 -0 2 -1 -3 -9 1 3 0 -4 2 1 -3 -4 0 -0
3 -4 -2 -1 2 -2 -2 -2 -1 3 9 1 -1 0 -5 2 -4 -0 -0 -2 -0 -0 1 0 -4 -2 -3 -0 -0 -1 -4 -1 -2 -4 -1 0 -3 -1 -1 1 -0 -0 -1 -3 -2 1 0
1 -2 -3 3 -4 1 -2 -3 1 4 9 2 -4 -5 4 7 1 2 -3 -1 3 0 -0 0 -0 -2 -0 -2 -7 -2 0 0 1 -1 -5 -4 1 -0 2 0 1 1 1 -1 -1 -1 -2
3 4 -2 -1 2 1 -2 -1 3 8 6 8 -1 -1 2 2 4 -5 0 -1 1 4 -0 0 -1 -2 -2 -0 -1 -0 1 2 1 0 2 -4 -0 -5 -7 -4 -4 2 1 0 -3 -0 -2
-1 0 -0 3 1 1 -2 -1 1 6 6 11 -3 -5 1 -2 2 1 2 -0 1 1 1 0 -0 -2 -4 -2 0 0 1 2 -0 2 -1 -3 -2 -0 0 -0 0 -2 -2 0 1 -3 -2
7 5 1 -2 -1 -1 -1 -2 -0 2 15 22 -8 -1 2 -2 1 2 1 -3 -4 2 -6 1 -3 0 -1 -5 -8 -4 -5 -2 -5 3 -0 -0 1 -1 1 1 0 0 0 0 -0 -0 1
-0 -2 0 -1 1 -1 -2 -2 -3 1 19 6 1 0 1 -3 -0 5 -5 -6 -8 0 2 -1 -3 -3 -0 2 -1 2 1 -3 -6 -6 -0 -2 -2 -0 1 0 1 1 -8 -2 -1 0 -5
1 -1 -1 -2 -1 1 -2 -0 -4 1 10 1 -8 4 2 -4 2 -0 1 -1 -0 -9 -2 1 -2 -5 6 1 -5 -7 -8 -3 -3 1 -1 -2 -1 -1 0 1 -1 -9 0 -4 -4 -2 1
1 2 2 -0 2 2 -1 0 -2 -0 7 1 -2 2 0 -1 -0 -2 1 -2 1 0 5 2 4 9 -1 -1 -4 -1 -3 -4 0 1 -1 -1 -2 -1 -2 -0 -7 1 0 -3 -6 -10 -6
3 -0 -0 0 0 3 -0 1 1 -2 -0 18 -9 2 11 1 -6 3 1 4 -4 -1 11 -0 -3 6 3 -2 -2 -1 -1 -1 4 1 -0 -1 -2 -5 1 -0 -2 -4 -0 -1 -0 -7 -0
-0 -2 -0 -0 -1 2 -1 -2 0 -2 1 7 -10 -2 16 3 -21 3 2 4 6 2 -3 1 -0 1 0 -0 -1 -1 0 -3 -2 -2 1 0 -0 -2 0 -1 -9 -4 -0 -0 3 -9 0
-1 3 3 3 0 2 -1 0 -1 -1 -1 9 -10 1 2 -3 -14 2 9 -5 0 2 -3 4 -1 1 -1 -0 -2 -1 -1 -1 -2 -3 -3 -5 -5 -1 0 1 -9 -2 3 1 -5 -2 1
4 5 6 4 4 4 1 2 0 -1 -0 14 14 -1 1 7 0 3 -2 3 -5 1 17 10 -6 -4 -4 -3 1 -0 0 2 -3 -2 2 0 -9 -9 -9 -14 -2 -3 -2 -1 -1 1 -1
Height
1549 1549 1549 1548 1548 1547 1547 1547 1548 1550 1551 1551 1552 1552 1554 1555 1556 1556 1557 1557 1557 1557 1556 1554 1552 1552 1550 1549 1549 1547 1544 1541 1539 1537 1537 1535 1534 1542 1553 1565 1564 1573 1584 1589 1593 1597 1600
1548 1548 1548 1548 1548 1547 1546 1545 1546 1547 1548 1548 1549 1549 1550 1552 1553 1554 1555 1555 1555 1556 1554 1554 1553 1552 1551 1551 1549 1547 1545 1544 1539 1538 1536 1535 1536 1546 1558 1567 1568 1582 1587 1594 1599 1600 1603
1547 1547 1547 1547 1547 1546 1545 1545 1544 1544 1545 1545 1546 1547 1548 1548 1551 1552 1553 1553 1553 1554 1554 1553 1552 1551 1550 1550 1548 1548 1546 1545 1544 1542 1539 1543 1543 1545 1561 1573 1583 1586 1587 1599 1602 1603 1606
1546 1546 1546 1546 1545 1545 1545 1544 1543 1542 1542 1543 1543 1543 1545 1546 1548 1549 1550 1551 1551 1551 1552 1552 1551 1552 1549 1549 1548 1547 1546 1546 1546 1544 1542 1546 1547 1549 1562 1577 1589 1591 1594 1599 1604 1605 1606
1544 1544 1544 1544 1544 1544 1543 1543 1542 1541 1540 1540 1540 1541 1543 1543 1544 1546 1547 1548 1549 1549 1551 1550 1552 1551 1548 1548 1548 1548 1547 1546 1547 1547 1548 1551 1550 1562 1575 1576 1588 1592 1593 1597 1603 1604 1604
1542 1542 1542 1542 1543 1543 1542 1541 1541 1540 1538 1537 1538 1539 1541 1542 1541 1542 1544 1546 1547 1547 1549 1549 1550 1553 1547 1547 1547 1548 1549 1548 1548 1550 1551 1552 1560 1570 1577 1576 1577 1585 1592 1598 1599 1602 1603
1539 1539 1540 1540 1541 1541 1541 1540 1540 1539 1537 1536 1536 1536 1537 1539 1539 1540 1543 1546 1549 1548 1545 1544 1545 1545 1543 1543 1546 1548 1550 1550 1551 1552 1554 1558 1564 1569 1571 1574 1572 1576 1583 1592 1599 1600 1600
1535 1536 1537 1537 1537 1537 1538 1538 1537 1536 1535 1534 1533 1533 1534 1535 1536 1536 1538 1542 1544 1544 1541 1540 1542 1543 1543 1541 1544 1548 1551 1550 1551 1556 1557 1561 1566 1569 1573 1574 1574 1578 1583 1595 1599 1599 1599
1532 1533 1533 1533 1533 1534 1535 1535 1535 1534 1533 1533 1531 1531 1532 1533 1533 1534 1535 1541 1543 1542 1542 1536 1536 1539 1541 1541 1540 1547 1550 1547 1552 1558 1560 1561 1568 1569 1571 1577 1577 1584 1582 1592 1593 1599 1601
1529 1529 1530 1530 1530 1531 1532 1532 1532 1532 1531 1530 1529 1529 1530 1532 1537 1532 1532 1539 1542 1542 1546 1535 1533 1534 1536 1538 1540 1546 1547 1547 1554 1563 1562 1568 1570 1569 1574 1578 1578 1585 1587 1591 1595 1595 1595
1526 1526 1526 1526 1526 1527 1529 1529 1529 1529 1528 1527 1527 1528 1528 1529 1529 1529 1531 1538 1541 1542 1553 1524 1525 1527 1530 1536 1538 1545 1546 1546 1553 1558 1562 1574 1573 1573 1575 1576 1578 1585 1587 1592 1596 1599 1601
1522 1523 1522 1522 1523 1524 1525 1526 1527 1526 1526 1525 1525 1524 1525 1525 1524 1526 1528 1533 1541 1546 1543 1521 1519 1522 1527 1533 1536 1542 1544 1547 1554 1559 1564 1572 1574 1575 1576 1579 1579 1585 1591 1597 1602 1601 1603
1519 1518 1519 1519 1520 1521 1522 1523 1524 1523 1523 1522 1522 1522 1522 1521 1521 1522 1522 1524 1539 1531 1512 1518 1518 1519 1522 1531 1537 1540 1544 1549 1550 1566 1571 1575 1578 1578 1578 1580 1584 1584 1590 1605 1604 1604 1596
1514 1514 1515 1516 1517 1518 1519 1520 1520 1520 1520 1520 1520 1519 1518 1518 1517 1518 1520 1517 1525 1501 1507 1507 1511 1517 1523 1527 1536 1539 1545 1550 1552 1553 1570 1575 1581 1580 1580 1579 1579 1584 1586 1598 1596 1597 1590
1510 1511 1511 1512 1513 1514 1516 1516 1518 1517 1517 1518 1517 1516 1514 1515 1514 1514 1518 1513 1495 1497 1499 1503 1510 1514 1525 1526 1528 1536 1543 1547 1548 1549 1557 1575 1582 1581 1581 1581 1581 1588 1588 1597 1605 1619 1607
1506 1507 1508 1509 1510 1511 1512 1513 1514 1514 1515 1516 1515 1514 1510 1509 1510 1513 1517 1505 1498 1493 1495 1496 1504 1511 1519 1522 1527 1534 1540 1542 1546 1548 1550 1570 1581 1583 1583 1583 1585 1583 1593 1595 1602 1600 1596
1501 1502 1504 1505 1506 1507 1509 1510 1511 1512 1514 1514 1515 1514 1507 1506 1509 1517 1509 1502 1497 1495 1490 1492 1501 1508 1512 1516 1523 1528 1534 1542 1542 1548 1550 1561 1571 1585 1584 1580 1586 1591 1594 1610 1611 1621 1588
1495 1497 1499 1500 1502 1503 1505 1507 1509 1510 1512 1512 1514 1513 1507 1507 1511 1508 1507 1498 1492 1489 1489 1490 1494 1500 1506 1513 1520 1525 1532 1533 1539 1540 1547 1556 1569 1580 1582 1584 1583 1583 1588 1594 1590 1608 1637
1489 1490 1493 1495 1497 1499 1501 1503 1505 1508 1509 1511 1512 1508 1505 1505 1503 1502 1504 1496 1491 1488 1490 1492 1494 1496 1502 1510 1522 1523 1530 1536 1536 1538 1542 1551 1568 1582 1582 1583 1583 1580 1587 1595 1609 1614 1615
1482 1484 1487 1489 1491 1494 1496 1499 1501 1504 1507 1509 1511 1506 1500 1501 1498 1500 1502 1493 1495 1491 1491 1492 1495 1495 1501 1510 1516 1525 1532 1538 1539 1540 1539 1544 1560 1559 1556 1557 1568 1579 1581 1586 1581 1589 1597
1476 1477 1480 1482 1485 1488 1490 1493 1496 1500 1503 1507 1507 1501 1497 1493 1495 1498 1500 1492 1496 1489 1486 1488 1492 1493 1497 1514 1518 1525 1532 1538 1541 1542 1543 1544 1556 1558 1559 1563 1567 1567 1569 1577 1580 1574 1570
1468 1470 1472 1475 1478 1481 1484 1488 1491 1496 1499 1502 1501 1499 1494 1490 1484 1486 1490 1495 1491 1485 1488 1491 1492 1496 1496 1503 1503 1519 1522 1530 1533 1543 1544 1547 1556 1555 1560 1564 1564 1561 1563 1566 1568 1568 1573
1460 1461 1464 1467 1470 1473 1477 1481 1485 1490 1496 1494 1497 1497 1497 1491 1488 1491 1487 1489 1485 1484 1486 1488 1489 1494 1498 1500 1502 1506 1513 1519 1523 1532 1542 1545 1552 1553 1556 1561 1561 1556 1550 1553 1558 1556 1554
1450 1452 1454 1457 1461 1465 1469 1474 1479 1483 1489 1491 1494 1498 1498 1495 1493 1490 1486 1488 1483 1486 1488 1491 1491 1493 1504 1503 1507 1514 1519 1525 1529 1535 1536 1544 1548 1554 1560 1561 1558 1532 1537 1538 1540 1543 1545
1440 1441 1443 1446 1450 1454 1459 1465 1471 1477 1483 1485 1491 1495 1496 1493 1494 1489 1485 1484 1486 1487 1489 1493 1492 1494 1499 1500 1511 1521 1530 1531 1540 1542 1540 1539 1546 1559 1558 1558 1539 1525 1535 1536 1539 1523 1525
1427 1428 1431 1434 1438 1442 1448 1455 1462 1469 1475 1481 1485 1491 1494 1493 1488 1486 1484 1481 1481 1485 1494 1497 1496 1499 1500 1505 1511 1517 1525 1530 1540 1544 1544 1544 1544 1549 1560 1553 1546 1524 1527 1529 1532 1525 1512
1414 1415 1417 1420 1424 1430 1437 1444 1452 1460 1467 1474 1477 1485 1491 1493 1486 1487 1485 1479 1477 1481 1490 1496 1499 1501 1501 1507 1512 1515 1523 1526 1533 1534 1541 1544 1550 1554 1567 1554 1537 1523 1526 1529 1531 1518 1511
1401 1402 1404 1407 1411 1417 1425 1433 1443 1452 1460 1467 1473 1479 1486 1488 1485 1486 1485 1484 1480 1478 1484 1490 1500 1501 1504 1507 1507 1516 1520 1527 1529 1531 1533 1535 1544 1550 1558 1556 1542 1521 1528 1526 1517 1514 1512
1389 1390 1393 1396 1400 1407 1415 1424 1434 1444 1453 1462 1470 1474 1483 1487 1482 1482 1483 1483 1481 1481 1485 1485 1487 1491 1494 1502 1509 1512 1517 1524 1522 1528 1530 1529 1525 1529 1531 1525 1515 1516 1514 1515 1515 1514 1514